Precipitable_Water
1.69 1.74 1.72 1.85 1.75 1.73 1.79 1.79 1.72 1.59 1.54 1.52 1.45 1.35 1.24 1.15 1.15 1.24 1.30 1.33 1.34 1.32 1.32 1.32 1.32 1.33 1.34 1.34 1.34 1.32 1.32 1.32 1.34 1.34 1.38 1.33 1.26 1.20 1.29 1.29 1.25 1.09 0.96 0.94 0.96 0.96 0.94 0.90 0.87 0.86 0.85 0.83 0.83 0.82 0.79 0.80 0.81 0.85 0.89 0.92 0.99 1.06 1.04 1.00 1.04 1.04 0.98 0.88 1.04 1.10 1.12 1.07 0.98 0.99 1.04 1.05 0.99 0.98 0.97 0.99 1.00 0.99 1.00 0.99 0.98
1.63 1.67 1.59 1.70 1.72 1.71 1.69 1.80 1.72 1.58 1.54 1.50 1.41 1.31 1.18 1.12 1.15 1.25 1.31 1.33 1.34 1.33 1.32 1.31 1.31 1.30 1.29 1.30 1.32 1.32 1.30 1.30 1.30 1.31 1.29 1.27 1.23 1.29 1.30 1.16 0.98 0.86 0.82 0.83 0.88 0.92 0.92 0.93 0.94 0.93 0.88 0.82 0.82 0.81 0.82 0.82 0.85 0.89 0.94 0.93 0.98 0.99 0.97 0.98 0.96 0.93 0.94 1.02 1.05 1.11 1.10 1.06 0.97 0.94 0.96 0.98 0.95 0.92 0.91 0.94 0.94 0.92 0.93 0.95 0.95
1.57 1.57 1.61 1.56 1.62 1.63 1.65 1.80 1.65 1.57 1.55 1.50 1.39 1.28 1.16 1.12 1.19 1.29 1.33 1.35 1.36 1.35 1.33 1.30 1.28 1.29 1.31 1.33 1.32 1.32 1.31 1.32 1.32 1.30 1.27 1.24 1.29 1.32 1.23 1.07 0.96 0.88 0.86 0.87 0.85 0.87 0.89 0.91 0.94 0.91 0.86 0.87 0.89 0.88 0.87 0.87 0.86 0.85 0.82 0.76 0.74 0.77 0.83 0.89 0.92 0.93 0.98 1.12 1.15 1.15 1.16 1.10 1.02 0.98 0.95 0.93 0.93 0.92 0.90 0.89 0.94 0.98 0.96 0.93 0.94
1.43 1.53 1.58 1.57 1.60 1.56 1.65 1.72 1.64 1.62 1.56 1.48 1.36 1.23 1.11 1.12 1.22 1.29 1.30 1.32 1.33 1.33 1.32 1.30 1.29 1.32 1.35 1.35 1.34 1.32 1.34 1.34 1.32 1.31 1.28 1.29 1.28 1.31 1.19 1.08 1.04 0.99 0.96 0.91 0.92 0.91 0.91 0.93 0.93 0.90 0.91 0.92 0.93 0.96 0.94 0.93 0.92 0.91 0.88 0.88 0.89 0.88 0.86 0.87 0.91 0.95 1.02 1.07 1.10 1.11 1.12 1.10 1.03 0.98 1.01 1.03 1.03 1.00 0.97 0.95 0.95 0.97 0.97 0.98 0.99
1.43 1.50 1.54 1.56 1.55 1.55 1.57 1.56 1.62 1.65 1.55 1.44 1.33 1.16 1.06 1.11 1.22 1.27 1.29 1.31 1.32 1.32 1.32 1.32 1.31 1.33 1.35 1.34 1.33 1.31 1.32 1.32 1.31 1.28 1.25 1.28 1.36 1.36 1.17 1.11 1.08 1.03 1.00 0.98 0.97 0.98 0.98 0.96 0.95 0.92 0.94 0.94 0.97 1.01 1.01 1.00 1.01 1.03 1.02 0.96 0.92 0.91 0.89 0.85 0.88 0.93 0.98 1.01 1.02 1.05 1.06 1.07 1.11 1.11 1.07 1.06 1.06 1.04 1.06 1.08 1.06 1.02 1.05 1.05 1.07
1.44 1.47 1.53 1.51 1.53 1.51 1.44 1.51 1.65 1.61 1.52 1.40 1.28 1.11 1.05 1.13 1.22 1.26 1.30 1.34 1.34 1.34 1.33 1.32 1.30 1.31 1.33 1.33 1.30 1.30 1.31 1.29 1.25 1.23 1.30 1.41 1.49 1.45 1.26 1.15 1.13 1.12 1.07 1.05 1.01 0.98 0.96 0.96 0.96 0.98 1.01 1.03 1.05 1.08 1.10 1.10 1.10 1.14 1.18 1.16 1.05 1.00 0.95 0.89 0.89 0.93 0.94 0.94 0.95 0.97 1.00 1.04 1.08 1.12 1.12 1.09 1.10 1.10 1.08 1.10 1.09 1.06 1.09 1.09 1.06
1.45 1.43 1.44 1.49 1.52 1.54 1.51 1.55 1.64 1.57 1.49 1.38 1.25 1.08 1.08 1.15 1.22 1.28 1.32 1.35 1.36 1.36 1.36 1.35 1.31 1.30 1.32 1.33 1.31 1.29 1.30 1.26 1.21 1.29 1.42 1.49 1.54 1.43 1.25 1.19 1.14 1.11 1.10 1.09 1.06 1.03 0.98 0.98 1.01 1.05 1.10 1.12 1.15 1.18 1.18 1.18 1.17 1.17 1.22 1.22 1.14 1.05 0.99 0.95 0.92 0.90 0.88 0.89 0.91 0.94 0.97 0.99 1.04 1.07 1.11 1.14 1.09 1.06 1.06 1.06 1.01 1.00 0.98 0.98 0.96
1.53 1.49 1.49 1.48 1.51 1.54 1.53 1.57 1.59 1.54 1.46 1.32 1.15 1.07 1.11 1.18 1.23 1.30 1.36 1.40 1.41 1.39 1.39 1.36 1.31 1.27 1.29 1.29 1.28 1.28 1.26 1.22 1.26 1.40 1.52 1.55 1.51 1.35 1.22 1.17 1.13 1.10 1.08 1.08 1.06 1.06 1.06 1.07 1.08 1.10 1.14 1.17 1.19 1.20 1.19 1.18 1.18 1.18 1.22 1.21 1.16 1.07 1.01 0.96 0.93 0.91 0.90 0.89 0.91 0.94 0.98 1.01 1.03 1.04 1.08 1.10 1.11 1.10 1.06 0.99 0.97 0.94 0.91 0.90 0.92
1.48 1.49 1.55 1.61 1.59 1.58 1.54 1.57 1.57 1.51 1.38 1.22 1.10 1.09 1.17 1.20 1.25 1.33 1.39 1.42 1.43 1.42 1.40 1.38 1.32 1.26 1.26 1.26 1.24 1.23 1.20 1.25 1.36 1.46 1.53 1.53 1.47 1.26 1.13 1.12 1.11 1.08 1.07 1.06 1.06 1.08 1.10 1.10 1.11 1.13 1.16 1.19 1.20 1.20 1.20 1.19 1.19 1.18 1.18 1.19 1.12 1.07 1.01 0.99 0.97 0.94 0.91 0.91 0.91 0.94 0.99 1.03 1.06 1.09 1.12 1.12 1.09 1.05 1.00 0.95 0.91 0.88 0.88 0.92 0.92
1.50 1.56 1.59 1.61 1.60 1.57 1.56 1.57 1.54 1.46 1.31 1.16 1.08 1.14 1.22 1.23 1.26 1.35 1.40 1.42 1.42 1.41 1.41 1.38 1.33 1.28 1.25 1.23 1.20 1.20 1.24 1.35 1.43 1.47 1.48 1.45 1.33 1.18 1.17 1.18 1.18 1.14 1.10 1.07 1.08 1.11 1.13 1.15 1.16 1.18 1.19 1.21 1.20 1.19 1.19 1.18 1.18 1.16 1.16 1.17 1.11 1.07 1.02 0.99 0.97 0.94 0.92 0.91 0.92 0.92 0.98 1.03 1.07 1.08 1.10 1.07 1.02 0.99 0.92 0.86 0.82 0.89 0.94 0.98 0.99
1.58 1.64 1.66 1.65 1.65 1.58 1.57 1.57 1.54 1.42 1.25 1.11 1.10 1.18 1.25 1.26 1.31 1.38 1.40 1.42 1.42 1.41 1.40 1.38 1.34 1.29 1.25 1.21 1.17 1.21 1.33 1.39 1.43 1.45 1.44 1.34 1.20 1.17 1.21 1.26 1.26 1.22 1.16 1.11 1.11 1.16 1.19 1.20 1.20 1.21 1.21 1.20 1.19 1.17 1.18 1.18 1.18 1.19 1.19 1.20 1.14 1.08 1.03 0.98 0.95 0.91 0.90 0.90 0.89 0.89 0.93 0.98 0.99 1.01 1.00 0.96 0.91 0.92 0.89 0.88 0.89 0.98 1.00 1.02 1.03
1.60 1.64 1.65 1.68 1.67 1.62 1.58 1.59 1.52 1.37 1.19 1.14 1.15 1.24 1.29 1.32 1.35 1.39 1.41 1.44 1.44 1.42 1.41 1.39 1.34 1.28 1.24 1.21 1.22 1.30 1.37 1.43 1.46 1.42 1.36 1.26 1.18 1.15 1.23 1.30 1.31 1.23 1.16 1.13 1.14 1.19 1.22 1.22 1.21 1.20 1.20 1.20 1.20 1.22 1.23 1.22 1.23 1.22 1.23 1.24 1.17 1.10 1.02 0.95 0.91 0.89 0.88 0.87 0.86 0.85 0.85 0.87 0.91 0.92 0.93 0.94 0.98 1.00 0.98 0.96 0.95 0.95 1.01 1.01 1.00
1.55 1.58 1.62 1.63 1.63 1.61 1.58 1.57 1.48 1.33 1.24 1.20 1.23 1.28 1.32 1.39 1.41 1.43 1.45 1.48 1.47 1.44 1.42 1.41 1.36 1.29 1.27 1.27 1.32 1.38 1.44 1.47 1.46 1.42 1.36 1.25 1.14 1.12 1.22 1.32 1.34 1.27 1.17 1.14 1.15 1.18 1.21 1.21 1.19 1.19 1.20 1.21 1.23 1.25 1.25 1.25 1.24 1.24 1.25 1.25 1.20 1.10 1.00 0.94 0.90 0.88 0.86 0.85 0.83 0.83 0.83 0.85 0.87 0.87 0.94 0.99 1.04 1.06 1.06 1.02 0.98 0.94 0.94 0.96 0.95
1.52 1.58 1.60 1.57 1.58 1.59 1.55 1.51 1.43 1.36 1.31 1.26 1.27 1.31 1.33 1.35 1.39 1.42 1.44 1.46 1.48 1.47 1.46 1.44 1.41 1.35 1.30 1.33 1.40 1.46 1.50 1.51 1.47 1.43 1.38 1.24 1.16 1.16 1.23 1.32 1.35 1.32 1.23 1.17 1.16 1.17 1.20 1.19 1.19 1.20 1.21 1.21 1.24 1.26 1.25 1.25 1.25 1.25 1.24 1.22 1.16 1.09 1.01 0.95 0.92 0.88 0.85 0.81 0.80 0.82 0.85 0.89 0.94 0.96 0.95 0.97 1.05 1.07 1.02 0.97 0.95 0.93 0.93 0.94 0.91
1.48 1.52 1.57 1.59 1.56 1.57 1.53 1.44 1.37 1.34 1.30 1.29 1.31 1.32 1.33 1.33 1.34 1.38 1.44 1.49 1.48 1.45 1.46 1.45 1.44 1.44 1.42 1.42 1.42 1.46 1.48 1.52 1.49 1.49 1.44 1.32 1.23 1.22 1.21 1.28 1.33 1.34 1.31 1.20 1.16 1.17 1.21 1.22 1.21 1.20 1.20 1.20 1.23 1.26 1.26 1.24 1.25 1.25 1.23 1.19 1.13 1.06 0.99 0.95 0.92 0.88 0.85 0.82 0.81 0.85 0.87 0.92 0.95 0.98 0.98 1.01 0.97 0.97 0.96 0.94 0.94 0.92 0.89 0.87 0.90
1.53 1.55 1.61 1.62 1.60 1.55 1.44 1.40 1.38 1.35 1.31 1.33 1.31 1.32 1.33 1.33 1.33 1.35 1.39 1.41 1.43 1.41 1.42 1.44 1.47 1.48 1.51 1.54 1.59 1.57 1.57 1.57 1.57 1.56 1.51 1.38 1.28 1.26 1.27 1.29 1.32 1.34 1.36 1.33 1.21 1.17 1.21 1.24 1.23 1.21 1.20 1.19 1.22 1.27 1.28 1.26 1.24 1.24 1.22 1.17 1.12 1.07 1.02 0.96 0.91 0.89 0.87 0.85 0.84 0.85 0.87 0.92 0.98 1.02 1.05 0.98 0.93 0.96 0.95 0.92 0.88 0.89 0.89 0.87 0.91
1.59 1.70 1.67 1.60 1.56 1.47 1.39 1.40 1.37 1.34 1.38 1.37 1.34 1.34 1.32 1.31 1.31 1.32 1.38 1.40 1.43 1.44 1.44 1.49 1.53 1.52 1.56 1.59 1.62 1.63 1.64 1.61 1.58 1.59 1.57 1.54 1.41 1.32 1.30 1.31 1.31 1.33 1.37 1.40 1.32 1.18 1.18 1.24 1.24 1.22 1.21 1.20 1.21 1.25 1.27 1.28 1.27 1.24 1.20 1.18 1.15 1.11 1.06 0.99 0.92 0.89 0.88 0.87 0.85 0.83 0.86 0.90 0.99 1.02 1.05 1.02 0.95 0.97 0.95 0.83 0.86 0.89 0.85 0.87 0.87
1.57 1.57 1.53 1.50 1.42 1.37 1.34 1.31 1.29 1.34 1.37 1.37 1.32 1.30 1.28 1.27 1.26 1.26 1.29 1.33 1.38 1.41 1.40 1.42 1.47 1.55 1.54 1.53 1.61 1.66 1.69 1.71 1.63 1.60 1.62 1.60 1.56 1.46 1.37 1.36 1.36 1.35 1.38 1.42 1.42 1.31 1.18 1.19 1.24 1.23 1.23 1.22 1.23 1.23 1.24 1.27 1.29 1.30 1.25 1.19 1.18 1.15 1.11 1.03 0.95 0.93 0.92 0.90 0.86 0.85 0.85 0.92 0.96 0.99 1.03 1.03 0.95 1.00 0.96 0.86 0.87 0.91 0.90 0.87 0.87
1.45 1.41 1.40 1.33 1.27 1.31 1.32 1.29 1.26 1.28 1.32 1.31 1.26 1.26 1.23 1.21 1.21 1.22 1.24 1.26 1.28 1.30 1.33 1.36 1.40 1.44 1.48 1.53 1.55 1.57 1.61 1.63 1.61 1.66 1.68 1.65 1.66 1.61 1.56 1.45 1.43 1.37 1.35 1.37 1.43 1.42 1.31 1.19 1.21 1.23 1.24 1.24 1.25 1.25 1.24 1.25 1.27 1.28 1.28 1.27 1.22 1.19 1.14 1.06 1.00 0.97 0.97 0.93 0.89 0.85 0.82 0.87 0.90 0.94 0.97 0.98 1.00 0.99 0.98 0.94 0.90 0.90 0.92 0.91 0.90
1.36 1.36 1.33 1.33 1.35 1.33 1.32 1.28 1.30 1.31 1.36 1.30 1.26 1.24 1.22 1.22 1.24 1.25 1.24 1.26 1.29 1.32 1.35 1.38 1.41 1.42 1.45 1.46 1.46 1.48 1.50 1.54 1.57 1.57 1.60 1.62 1.62 1.65 1.65 1.58 1.49 1.45 1.39 1.35 1.40 1.44 1.40 1.28 1.18 1.20 1.22 1.22 1.24 1.25 1.23 1.24 1.24 1.25 1.24 1.28 1.26 1.22 1.16 1.09 1.05 1.02 1.01 0.96 0.92 0.89 0.84 0.84 0.84 0.85 0.91 0.94 0.91 0.99 0.99 0.98 0.94 0.94 0.94 0.92 0.90
1.25 1.26 1.25 1.29 1.27 1.21 1.29 1.31 1.34 1.40 1.39 1.35 1.32 1.30 1.27 1.22 1.21 1.21 1.22 1.23 1.28 1.32 1.35 1.37 1.39 1.41 1.41 1.44 1.44 1.43 1.45 1.45 1.47 1.50 1.51 1.51 1.55 1.58 1.62 1.59 1.48 1.46 1.41 1.37 1.36 1.45 1.48 1.40 1.29 1.23 1.24 1.26 1.24 1.23 1.23 1.23 1.23 1.23 1.27 1.31 1.30 1.23 1.19 1.12 1.10 1.07 1.03 1.00 0.96 0.94 0.92 0.86 0.80 0.80 0.87 0.88 0.90 0.94 0.98 0.94 0.94 0.94 0.93 0.91 0.91
1.11 1.13 1.23 1.29 1.25 1.27 1.29 1.32 1.34 1.39 1.39 1.36 1.35 1.35 1.33 1.31 1.27 1.27 1.27 1.26 1.25 1.25 1.26 1.29 1.33 1.33 1.37 1.38 1.39 1.39 1.43 1.47 1.46 1.48 1.46 1.46 1.49 1.51 1.53 1.56 1.56 1.48 1.40 1.35 1.32 1.35 1.45 1.46 1.37 1.31 1.28 1.30 1.28 1.25 1.23 1.25 1.25 1.24 1.29 1.32 1.30 1.27 1.21 1.15 1.12 1.09 1.05 1.03 1.02 1.01 0.99 0.90 0.80 0.79 0.81 0.84 0.83 0.88 0.93 0.94 0.91 0.90 0.89 0.90 0.90
1.10 1.17 1.25 1.26 1.26 1.29 1.33 1.33 1.35 1.38 1.36 1.31 1.29 1.30 1.31 1.30 1.27 1.28 1.32 1.38 1.40 1.32 1.33 1.28 1.27 1.30 1.28 1.31 1.38 1.40 1.42 1.45 1.45 1.49 1.48 1.46 1.46 1.46 1.46 1.48 1.52 1.51 1.46 1.38 1.32 1.29 1.37 1.42 1.38 1.34 1.33 1.31 1.30 1.28 1.25 1.24 1.25 1.28 1.29 1.29 1.28 1.27 1.24 1.19 1.14 1.12 1.09 1.08 1.05 1.05 1.05 0.98 0.82 0.79 0.76 0.77 0.83 0.85 0.88 0.90 0.88 0.86 0.88 0.85 0.88
1.13 1.17 1.19 1.30 1.32 1.31 1.34 1.37 1.36 1.35 1.34 1.36 1.34 1.31 1.31 1.32 1.32 1.33 1.37 1.41 1.44 1.45 1.47 1.39 1.34 1.37 1.35 1.31 1.33 1.38 1.41 1.44 1.49 1.50 1.49 1.45 1.46 1.45 1.44 1.41 1.42 1.44 1.48 1.42 1.32 1.28 1.27 1.35 1.36 1.34 1.35 1.36 1.33 1.32 1.28 1.26 1.26 1.28 1.26 1.26 1.25 1.25 1.24 1.22 1.20 1.18 1.14 1.12 1.10 1.09 1.11 1.05 0.95 0.88 0.82 0.78 0.82 0.78 0.84 0.87 0.86 0.90 0.88 0.90 0.90
1.16 1.21 1.24 1.20 1.25 1.31 1.37 1.37 1.38 1.39 1.38 1.37 1.35 1.37 1.33 1.33 1.34 1.34 1.37 1.40 1.42 1.46 1.47 1.42 1.38 1.35 1.33 1.32 1.31 1.33 1.35 1.37 1.41 1.43 1.43 1.43 1.42 1.41 1.39 1.37 1.37 1.35 1.40 1.36 1.33 1.23 1.21 1.24 1.31 1.31 1.34 1.37 1.36 1.35 1.33 1.29 1.29 1.29 1.27 1.26 1.24 1.24 1.24 1.23 1.22 1.21 1.19 1.18 1.16 1.15 1.19 1.12 1.07 1.00 0.94 0.88 0.86 0.84 0.84 0.82 0.85 0.86 0.87 0.87 0.89
1.23 1.16 1.17 1.21 1.29 1.39 1.43 1.46 1.47 1.46 1.44 1.41 1.38 1.39 1.45 1.39 1.42 1.43 1.43 1.44 1.44 1.43 1.42 1.40 1.38 1.37 1.34 1.31 1.29 1.28 1.29 1.31 1.33 1.36 1.39 1.40 1.40 1.41 1.39 1.38 1.36 1.32 1.36 1.32 1.30 1.26 1.20 1.19 1.25 1.28 1.32 1.40 1.42 1.42 1.39 1.36 1.34 1.36 1.34 1.32 1.28 1.25 1.23 1.23 1.21 1.19 1.18 1.17 1.16 1.17 1.23 1.22 1.15 1.12 1.07 0.98 0.94 0.93 0.86 0.84 0.82 0.81 0.83 0.85 0.87
1.13 1.14 1.20 1.29 1.38 1.44 1.47 1.47 1.45 1.45 1.46 1.46 1.43 1.39 1.39 1.45 1.47 1.46 1.41 1.37 1.40 1.37 1.37 1.38 1.38 1.39 1.35 1.32 1.27 1.25 1.25 1.25 1.27 1.30 1.32 1.37 1.38 1.41 1.41 1.41 1.39 1.39 1.39 1.34 1.32 1.32 1.26 1.20 1.19 1.25 1.31 1.37 1.42 1.47 1.44 1.42 1.42 1.44 1.42 1.38 1.37 1.33 1.29 1.25 1.23 1.20 1.19 1.16 1.14 1.14 1.20 1.24 1.20 1.18 1.16 1.10 1.05 1.03 0.99 0.93 0.90 0.86 0.83 0.82 0.84
1.10 1.14 1.28 1.34 1.39 1.43 1.49 1.48 1.46 1.47 1.46 1.48 1.45 1.42 1.42 1.43 1.44 1.45 1.43 1.42 1.41 1.39 1.40 1.43 1.46 1.45 1.44 1.41 1.38 1.31 1.26 1.21 1.22 1.22 1.23 1.27 1.31 1.35 1.38 1.39 1.41 1.43 1.47 1.48 1.44 1.41 1.36 1.30 1.23 1.22 1.27 1.35 1.40 1.45 1.47 1.49 1.50 1.53 1.50 1.45 1.43 1.41 1.39 1.34 1.29 1.24 1.22 1.19 1.16 1.13 1.16 1.22 1.20 1.17 1.18 1.18 1.13 1.13 1.12 1.07 1.03 1.02 0.97 0.91 0.89
1.13 1.24 1.31 1.38 1.43 1.48 1.51 1.51 1.51 1.50 1.50 1.51 1.46 1.46 1.44 1.41 1.40 1.40 1.40 1.44 1.40 1.39 1.40 1.43 1.42 1.44 1.44 1.43 1.41 1.35 1.32 1.27 1.24 1.23 1.24 1.21 1.24 1.28 1.32 1.34 1.36 1.39 1.42 1.41 1.42 1.43 1.43 1.41 1.39 1.36 1.36 1.33 1.37 1.42 1.46 1.47 1.50 1.52 1.53 1.51 1.49 1.46 1.43 1.41 1.36 1.31 1.27 1.24 1.20 1.16 1.15 1.20 1.20 1.17 1.16 1.18 1.18 1.15 1.15 1.13 1.11 1.09 1.08 1.04 1.00
1.23 1.30 1.33 1.37 1.43 1.46 1.44 1.41 1.42 1.45 1.45 1.44 1.44 1.38 1.36 1.33 1.35 1.37 1.37 1.37 1.35 1.37 1.40 1.39 1.40 1.38 1.34 1.32 1.31 1.27 1.22 1.21 1.21 1.24 1.22 1.22 1.24 1.26 1.29 1.32 1.33 1.33 1.36 1.34 1.38 1.38 1.39 1.41 1.42 1.42 1.41 1.40 1.37 1.40 1.46 1.47 1.49 1.51 1.55 1.53 1.52 1.51 1.49 1.43 1.41 1.39 1.35 1.31 1.27 1.22 1.19 1.22 1.22 1.19 1.16 1.15 1.18 1.18 1.13 1.12 1.11 1.12 1.11 1.11 1.10
1.27 1.25 1.30 1.34 1.39 1.37 1.35 1.36 1.37 1.40 1.40 1.36 1.33 1.28 1.28 1.29 1.32 1.34 1.36 1.36 1.38 1.38 1.35 1.34 1.33 1.31 1.28 1.27 1.25 1.24 1.20 1.16 1.13 1.15 1.18 1.20 1.22 1.22 1.23 1.26 1.28 1.29 1.28 1.29 1.37 1.36 1.37 1.36 1.38 1.40 1.40 1.40 1.41 1.46 1.46 1.45 1.47 1.48 1.51 1.51 1.52 1.53 1.50 1.49 1.44 1.42 1.39 1.37 1.34 1.30 1.26 1.27 1.29 1.26 1.22 1.18 1.17 1.20 1.18 1.14 1.11 1.08 1.06 1.07 1.10
1.19 1.21 1.28 1.33 1.32 1.29 1.24 1.25 1.26 1.26 1.26 1.21 1.19 1.19 1.23 1.27 1.28 1.30 1.30 1.34 1.35 1.31 1.28 1.24 1.20 1.20 1.22 1.21 1.21 1.19 1.19 1.16 1.13 1.09 1.06 1.05 1.08 1.14 1.21 1.22 1.23 1.27 1.28 1.25 1.25 1.30 1.33 1.38 1.41 1.40 1.40 1.41 1.41 1.43 1.44 1.41 1.42 1.47 1.51 1.50 1.52 1.49 1.48 1.50 1.47 1.44 1.41 1.39 1.39 1.36 1.32 1.29 1.31 1.31 1.29 1.26 1.23 1.25 1.26 1.24 1.22 1.19 1.15 1.10 1.09
1.20 1.21 1.22 1.24 1.23 1.21 1.19 1.19 1.18 1.14 1.11 1.12 1.12 1.13 1.17 1.18 1.15 1.15 1.14 1.15 1.15 1.14 1.09 1.07 1.06 1.07 1.11 1.15 1.17 1.17 1.17 1.13 1.12 1.09 1.06 1.04 1.02 1.01 1.03 1.10 1.16 1.21 1.25 1.26 1.26 1.26 1.25 1.26 1.32 1.39 1.39 1.39 1.37 1.37 1.40 1.40 1.39 1.43 1.49 1.49 1.49 1.45 1.46 1.44 1.44 1.43 1.42 1.40 1.39 1.40 1.37 1.34 1.33 1.34 1.34 1.32 1.30 1.27 1.29 1.31 1.31 1.30 1.28 1.25 1.20
1.13 1.15 1.16 1.14 1.14 1.14 1.15 1.13 1.12 1.09 1.07 1.06 1.05 1.03 1.03 1.03 1.03 1.02 1.01 1.00 0.99 0.97 0.96 0.95 0.96 0.96 0.98 1.00 1.05 1.10 1.12 1.14 1.11 1.10 1.10 1.07 1.06 1.03 1.01 1.02 1.07 1.11 1.15 1.17 1.16 1.19 1.18 1.18 1.19 1.24 1.26 1.30 1.31 1.33 1.32 1.31 1.35 1.40 1.43 1.46 1.44 1.41 1.41 1.40 1.39 1.39 1.39 1.39 1.41 1.40 1.38 1.36 1.35 1.35 1.36 1.36 1.35 1.31 1.29 1.32 1.33 1.34 1.34 1.32 1.30
1.10 1.09 1.06 1.06 1.07 1.08 1.07 1.02 0.99 0.97 0.96 0.95 0.92 0.89 0.89 0.89 0.89 0.88 0.90 0.92 0.93 0.93 0.92 0.92 0.92 0.92 0.93 0.93 0.95 0.98 1.01 1.03 1.07 1.08 1.08 1.07 1.04 1.03 1.05 1.06 1.08 1.08 1.06 1.08 1.07 1.11 1.12 1.12 1.15 1.11 1.16 1.18 1.22 1.26 1.28 1.26 1.27 1.28 1.33 1.37 1.35 1.35 1.34 1.32 1.36 1.37 1.36 1.35 1.38 1.40 1.41 1.38 1.35 1.35 1.37 1.38 1.39 1.37 1.32 1.29 1.32 1.34 1.35 1.35 1.35
1.04 1.02 1.01 1.01 1.00 1.01 1.00 0.93 0.89 0.84 0.81 0.79 0.79 0.81 0.81 0.81 0.82 0.83 0.83 0.84 0.84 0.85 0.88 0.91 0.93 0.94 0.93 0.93 0.94 0.95 0.96 0.98 1.01 1.05 1.03 1.04 1.03 1.01 1.03 1.07 1.08 1.06 1.05 1.05 1.04 1.00 1.02 1.05 1.11 1.12 1.05 1.07 1.12 1.15 1.21 1.19 1.21 1.20 1.23 1.25 1.27 1.28 1.27 1.26 1.25 1.27 1.34 1.36 1.32 1.34 1.38 1.40 1.41 1.40 1.38 1.39 1.38 1.38 1.37 1.34 1.32 1.32 1.34 1.36 1.36
1.03 0.99 0.92 0.90 0.89 0.89 0.87 0.81 0.76 0.70 0.68 0.67 0.67 0.69 0.71 0.72 0.74 0.76 0.77 0.79 0.79 0.80 0.83 0.86 0.87 0.88 0.91 0.91 0.93 0.94 0.94 0.94 0.97 1.02 1.02 1.02 1.03 1.04 1.09 1.11 1.10 1.06 1.05 1.07 1.03 1.03 1.01 0.99 1.01 1.07 1.07 1.01 1.05 1.07 1.12 1.16 1.16 1.17 1.18 1.17 1.18 1.18 1.17 1.18 1.19 1.19 1.21 1.20 1.22 1.25 1.29 1.33 1.38 1.41 1.44 1.43 1.40 1.38 1.37 1.37 1.36 1.34 1.34 1.36 1.38
0.99 0.95 0.86 0.80 0.77 0.77 0.76 0.73 0.71 0.69 0.65 0.62 0.60 0.60 0.61 0.63 0.65 0.66 0.67 0.65 0.67 0.69 0.71 0.73 0.74 0.77 0.79 0.80 0.83 0.85 0.88 0.89 0.91 0.96 0.97 1.01 1.03 1.04 1.08 1.11 1.12 1.12 1.10 1.11 1.13 1.15 1.07 1.01 0.97 1.05 1.05 1.00 0.97 1.00 1.04 1.10 1.13 1.13 1.15 1.16 1.15 1.16 1.16 1.17 1.17 1.17 1.15 1.13 1.15 1.19 1.26 1.32 1.33 1.37 1.44 1.46 1.43 1.41 1.39 1.36 1.36 1.37 1.38 1.38 1.39
0.91 0.82 0.75 0.73 0.72 0.71 0.69 0.67 0.66 0.64 0.61 0.60 0.60 0.59 0.59 0.58 0.59 0.56 0.55 0.55 0.56 0.58 0.59 0.57 0.58 0.59 0.59 0.62 0.66 0.69 0.74 0.78 0.81 0.83 0.86 0.91 0.94 0.97 1.00 1.04 1.08 1.08 1.09 1.11 1.16 1.21 1.18 1.10 0.98 1.00 1.11 1.13 1.04 1.00 0.99 1.02 1.03 1.07 1.10 1.14 1.18 1.18 1.19 1.19 1.19 1.16 1.14 1.12 1.12 1.13 1.16 1.22 1.33 1.37 1.40 1.45 1.47 1.45 1.41 1.38 1.35 1.34 1.34 1.36 1.39
0.79 0.72 0.69 0.67 0.64 0.64 0.63 0.62 0.61 0.61 0.59 0.56 0.55 0.53 0.52 0.49 0.46 0.47 0.45 0.48 0.52 0.53 0.57 0.57 0.59 0.58 0.59 0.57 0.56 0.58 0.62 0.65 0.68 0.72 0.75 0.80 0.84 0.88 0.90 0.95 0.99 1.02 1.02 1.02 1.07 1.11 1.09 1.07 1.07 1.02 0.96 0.98 1.03 1.02 1.02 0.97 0.96 0.96 0.99 1.06 1.13 1.16 1.16 1.18 1.18 1.17 1.17 1.14 1.12 1.14 1.10 1.12 1.19 1.30 1.36 1.39 1.43 1.45 1.44 1.43 1.39 1.31 1.27 1.30 1.36
0.71 0.68 0.63 0.60 0.59 0.57 0.56 0.53 0.56 0.57 0.54 0.50 0.49 0.47 0.44 0.43 0.44 0.43 0.44 0.49 0.51 0.54 0.54 0.57 0.59 0.61 0.62 0.61 0.60 0.60 0.60 0.63 0.66 0.68 0.70 0.73 0.77 0.81 0.84 0.87 0.90 0.92 0.94 0.96 1.02 1.05 1.06 1.06 1.07 1.09 1.05 0.99 0.94 1.00 1.03 1.04 0.92 0.84 0.90 0.91 0.97 1.07 1.10 1.12 1.12 1.15 1.16 1.16 1.16 1.11 1.10 1.09 1.08 1.09 1.15 1.21 1.23 1.31 1.37 1.37 1.33 1.27 1.23 1.23 1.33
0.64 0.62 0.57 0.55 0.54 0.55 0.52 0.53 0.54 0.53 0.53 0.51 0.49 0.48 0.49 0.48 0.47 0.47 0.49 0.50 0.52 0.52 0.53 0.58 0.60 0.64 0.66 0.66 0.64 0.63 0.63 0.63 0.67 0.69 0.70 0.74 0.75 0.77 0.79 0.77 0.79 0.80 0.80 0.86 0.94 0.98 1.00 1.00 1.01 0.96 1.01 0.91 0.87 0.96 1.01 1.02 0.94 0.86 0.77 0.76 0.81 0.91 0.98 1.01 1.03 1.07 1.10 1.13 1.15 1.14 1.12 1.09 1.07 1.09 1.11 1.10 1.10 1.13 1.17 1.21 1.22 1.20 1.22 1.26 1.31
0.60 0.57 0.57 0.53 0.51 0.49 0.50 0.51 0.50 0.48 0.48 0.50 0.49 0.48 0.52 0.52 0.50 0.50 0.51 0.51 0.59 0.62 0.62 0.64 0.67 0.66 0.69 0.70 0.70 0.67 0.65 0.63 0.66 0.71 0.72 0.76 0.79 0.79 0.77 0.78 0.76 0.75 0.70 0.70 0.76 0.80 0.87 0.89 0.90 0.86 0.84 0.90 0.87 0.95 0.97 0.99 0.87 0.98 1.00 0.89 0.77 0.70 0.80 0.90 1.00 1.04 1.09 1.10 1.13 1.13 1.14 1.12 1.10 1.12 1.15 1.15 1.11 1.09 1.12 1.15 1.15 1.17 1.23 1.32 1.36
0.58 0.56 0.55 0.50 0.49 0.48 0.47 0.47 0.46 0.47 0.48 0.52 0.54 0.55 0.56 0.56 0.55 0.54 0.56 0.57 0.54 0.61 0.63 0.66 0.67 0.67 0.67 0.72 0.75 0.74 0.70 0.67 0.68 0.71 0.76 0.79 0.81 0.81 0.81 0.79 0.77 0.75 0.67 0.63 0.66 0.68 0.74 0.79 0.83 0.83 0.81 0.69 0.76 0.81 0.95 0.97 0.93 0.87 0.71 0.78 0.82 0.82 0.66 0.71 0.79 0.94 1.05 1.08 1.13 1.14 1.17 1.14 1.14 1.15 1.16 1.13 1.12 1.11 1.12 1.14 1.14 1.18 1.24 1.32 1.37
0.58 0.55 0.53 0.50 0.48 0.47 0.46 0.46 0.46 0.48 0.50 0.53 0.55 0.56 0.55 0.52 0.51 0.52 0.54 0.53 0.56 0.56 0.55 0.55 0.62 0.67 0.70 0.72 0.75 0.80 0.79 0.74 0.72 0.72 0.75 0.79 0.83 0.83 0.82 0.82 0.78 0.74 0.72 0.70 0.70 0.73 0.76 0.79 0.79 0.75 0.72 0.67 0.65 0.74 0.84 0.93 0.91 0.97 0.84 0.72 0.69 0.66 0.71 0.84 0.86 0.84 1.00 1.03 1.09 1.13 1.16 1.18 1.18 1.18 1.16 1.15 1.19 1.18 1.16 1.16 1.17 1.19 1.23 1.28 1.30
0.55 0.55 0.55 0.53 0.50 0.48 0.48 0.48 0.49 0.50 0.50 0.53 0.56 0.56 0.54 0.49 0.45 0.43 0.40 0.43 0.44 0.49 0.50 0.53 0.59 0.63 0.67 0.77 0.81 0.84 0.84 0.83 0.79 0.76 0.77 0.79 0.80 0.82 0.82 0.79 0.75 0.73 0.74 0.73 0.74 0.76 0.78 0.80 0.85 0.83 0.77 0.79 0.72 0.68 0.70 0.87 0.92 0.92 0.94 0.91 0.83 0.66 0.68 0.82 0.86 0.73 0.99 1.07 1.09 1.11 1.13 1.18 1.23 1.23 1.23 1.22 1.22 1.24 1.26 1.25 1.27 1.25 1.25 1.23 1.22
0.56 0.58 0.56 0.54 0.53 0.53 0.51 0.51 0.52 0.53 0.55 0.56 0.57 0.57 0.53 0.50 0.48 0.49 0.51 0.51 0.50 0.57 0.66 0.71 0.71 0.75 0.80 0.80 0.83 0.88 0.90 0.88 0.88 0.86 0.82 0.80 0.80 0.80 0.78 0.77 0.75 0.75 0.78 0.77 0.74 0.75 0.79 0.82 0.88 0.88 0.88 0.88 0.84 0.71 0.70 0.73 0.82 0.87 0.92 0.94 0.94 0.94 0.94 0.82 0.73 0.84 0.76 0.94 1.08 1.11 1.15 1.20 1.22 1.22 1.23 1.26 1.29 1.31 1.33 1.36 1.36 1.35 1.30 1.27 1.24
0.62 0.60 0.57 0.58 0.55 0.55 0.55 0.56 0.57 0.57 0.57 0.57 0.55 0.57 0.51 0.49 0.49 0.51 0.56 0.58 0.60 0.62 0.68 0.73 0.79 0.81 0.81 0.82 0.86 0.89 0.93 0.94 0.93 0.93 0.91 0.87 0.84 0.79 0.78 0.77 0.76 0.76 0.76 0.75 0.77 0.80 0.82 0.85 0.87 0.89 0.90 0.90 0.88 0.80 0.76 0.80 0.70 0.71 0.86 0.87 0.89 0.95 0.98 0.98 0.97 0.86 0.80 0.73 0.83 1.11 1.19 1.20 1.20 1.20 1.22 1.23 1.27 1.31 1.33 1.36 1.36 1.36 1.35 1.35 1.34
0.64 0.60 0.61 0.60 0.60 0.60 0.59 0.59 0.56 0.55 0.54 0.54 0.51 0.53 0.54 0.52 0.53 0.55 0.56 0.63 0.66 0.68 0.73 0.77 0.78 0.82 0.81 0.84 0.86 0.88 0.92 0.94 0.96 0.96 0.96 0.94 0.91 0.87 0.83 0.79 0.76 0.76 0.78 0.77 0.78 0.79 0.79 0.79 0.81 0.82 0.83 0.85 0.87 0.87 0.83 0.80 0.82 0.79 0.80 0.82 0.87 0.88 0.92 0.95 0.96 0.96 0.82 0.75 0.76 0.88 0.98 1.17 1.20 1.18 1.19 1.23 1.27 1.31 1.33 1.36 1.39 1.40 1.39 1.39 1.40
0.69 0.69 0.67 0.65 0.63 0.61 0.58 0.55 0.52 0.50 0.49 0.48 0.49 0.51 0.54 0.56 0.55 0.58 0.58 0.61 0.66 0.69 0.73 0.73 0.75 0.80 0.80 0.83 0.86 0.87 0.90 0.93 0.94 0.99 0.99 1.00 0.98 0.96 0.93 0.89 0.86 0.85 0.85 0.83 0.83 0.81 0.81 0.81 0.82 0.83 0.85 0.83 0.87 0.86 0.84 0.85 0.87 0.88 0.85 0.82 0.78 0.80 0.83 0.86 0.88 0.89 0.89 0.89 0.75 0.79 0.92 0.97 0.97 1.11 1.24 1.24 1.25 1.28 1.32 1.34 1.35 1.36 1.37 1.34 1.35
0.70 0.69 0.66 0.65 0.64 0.58 0.54 0.51 0.48 0.44 0.46 0.46 0.47 0.48 0.51 0.54 0.55 0.59 0.61 0.62 0.66 0.68 0.68 0.71 0.75 0.77 0.77 0.81 0.84 0.87 0.91 0.92 0.97 1.02 1.02 1.02 0.99 0.99 0.97 0.96 0.97 0.93 0.89 0.87 0.86 0.88 0.88 0.88 0.88 0.88 0.87 0.85 0.85 0.87 0.87 0.89 0.90 0.89 0.88 0.88 0.85 0.84 0.80 0.76 0.80 0.88 0.88 0.84 0.84 0.83 0.92 1.01 1.02 1.04 1.19 1.27 1.26 1.25 1.26 1.26 1.26 1.30 1.34 1.35 1.38
Wind_Speed
7 8 7 5 6 5 5 6 8 7 7 6 5 4 4 3 3 3 4 4 4 4 5 5 5 5 5 5 5 5 5 5 5 4 4 4 4 4 4 3 3 3 2 2 2 2 3 3 3 2 2 2 2 3 3 3 3 3 4 4 4 4 4 4 4 4 4 4 4 4 5 5 5 5 5 5 5 5 5 5 6 6 6 6 6
7 7 7 6 6 6 6 6 7 7 7 6 5 5 4 4 4 4 4 4 4 5 5 5 5 5 4 5 5 5 5 5 5 4 4 4 4 4 3 3 3 3 2 2 2 2 2 2 2 2 2 2 2 3 3 3 3 4 4 4 4 4 3 3 3 3 4 4 4 4 4 5 5 5 5 5 5 5 5 5 6 6 6 6 6
6 7 7 6 5 6 6 6 7 8 7 6 6 5 4 4 4 5 4 5 5 5 5 5 5 4 4 5 5 5 5 5 5 4 4 4 4 4 3 3 2 3 2 2 2 2 2 2 2 2 2 2 2 3 3 3 3 4 4 4 4 4 3 3 3 3 3 3 4 4 4 4 5 5 5 5 6 6 5 5 6 6 6 6 6
4 4 5 7 6 6 6 6 7 8 7 6 6 5 5 4 5 5 5 5 5 5 4 4 5 5 5 5 5 5 5 5 5 4 4 4 4 4 3 2 2 2 2 2 2 2 2 2 2 2 2 2 3 3 3 3 3 4 4 4 4 4 4 3 3 3 3 3 3 3 4 4 5 5 5 5 5 6 6 6 6 6 6 7 7
1 1 2 7 8 7 8 7 6 6 6 6 5 5 5 4 5 5 5 5 5 4 4 4 4 4 4 5 5 5 5 5 5 5 4 4 4 3 3 2 2 2 2 2 2 2 2 2 3 3 3 3 3 3 3 3 3 3 3 3 3 4 4 4 3 3 3 3 3 3 4 4 4 4 4 5 5 5 5 6 6 6 6 7 7
1 2 1 6 10 9 9 7 5 5 6 6 6 5 4 4 4 4 5 4 4 4 4 4 4 4 4 4 5 5 5 5 5 5 4 4 3 3 3 2 2 2 2 2 2 2 2 2 3 3 3 3 3 3 2 2 2 2 2 2 2 3 3 4 3 3 3 3 3 3 3 4 4 4 4 4 4 5 5 5 5 6 6 6 6
2 2 3 6 10 10 8 6 5 5 5 6 6 5 5 5 5 5 4 4 4 4 3 3 4 4 4 4 4 4 5 5 5 4 4 4 3 2 2 2 2 2 2 2 2 2 2 3 3 3 3 3 3 2 2 1 1 1 1 1 2 2 3 3 3 3 3 3 2 3 3 4 4 3 4 4 4 4 4 5 5 5 5 5 6
2 2 3 5 8 8 6 5 6 5 5 6 6 5 5 5 5 5 4 4 4 4 4 3 4 4 4 4 4 4 4 4 4 4 4 3 3 2 2 1 1 1 1 2 2 2 3 3 3 3 3 3 2 2 1 1 1 1 0 1 1 2 2 3 3 3 3 3 2 3 3 4 4 3 3 3 4 4 4 4 4 5 5 5 6
1 1 2 4 5 6 5 5 6 5 5 5 5 5 5 5 5 4 4 4 4 4 4 3 3 4 4 4 4 4 4 4 4 4 4 3 2 2 1 1 1 1 1 1 2 3 3 3 3 3 3 2 2 1 1 1 1 1 1 1 1 1 2 2 2 3 3 3 2 2 2 3 3 3 3 3 3 3 3 4 4 4 5 5 6
2 2 3 4 4 5 5 5 5 5 5 5 4 5 5 5 5 4 4 4 4 4 4 3 3 3 4 4 4 4 4 4 4 4 4 3 2 2 1 1 1 1 2 2 2 3 3 3 3 3 3 2 1 1 1 1 1 1 1 1 1 1 1 2 2 2 2 2 2 2 2 1 2 2 2 2 3 3 3 4 4 4 5 5 6
2 2 3 3 4 4 4 4 4 4 5 5 5 5 5 5 5 5 4 4 4 4 4 4 4 4 4 4 4 4 4 4 3 4 3 3 2 1 1 1 1 1 2 2 2 3 3 3 3 3 3 2 1 1 2 2 2 2 1 1 2 1 1 1 2 2 2 2 2 2 1 1 1 1 2 2 3 3 3 4 4 4 5 5 5
1 2 2 2 3 3 3 4 4 4 5 5 6 6 5 5 5 5 5 5 5 5 4 4 4 4 4 4 4 4 4 4 3 3 3 3 2 1 1 0 1 1 2 2 2 3 3 3 4 3 3 2 2 2 3 2 2 2 2 2 2 1 0 1 2 2 2 2 2 2 2 1 1 1 2 2 3 3 3 4 4 4 4 4 5
1 1 1 2 2 3 3 3 4 5 5 5 6 6 6 5 5 5 5 5 5 4 4 4 4 4 4 4 4 4 4 4 3 3 3 2 2 1 1 1 1 1 2 2 3 3 4 4 3 3 2 2 2 2 2 2 1 1 2 2 2 1 0 1 1 2 2 2 2 2 2 1 1 1 2 2 2 3 3 3 3 4 4 4 5
1 1 1 2 3 3 3 3 4 5 6 6 7 7 6 5 5 6 5 5 5 4 4 4 4 4 3 3 3 3 3 3 3 3 3 3 2 1 1 1 1 1 1 2 3 3 4 4 3 3 2 2 2 2 2 1 1 1 1 2 1 1 1 1 1 2 2 2 2 1 1 1 1 1 1 1 2 2 3 3 3 4 4 4 4
2 2 1 2 3 4 3 2 3 6 7 7 7 7 6 6 5 6 5 5 5 4 4 4 4 3 3 3 3 3 3 3 3 3 3 3 3 2 1 1 1 1 2 2 2 3 4 4 3 3 2 2 2 2 1 1 1 1 1 1 1 1 1 1 2 2 2 2 2 1 1 1 1 1 1 1 2 2 3 3 3 4 4 4 4
2 2 2 3 3 4 3 2 4 7 8 8 8 7 6 6 5 5 5 5 5 4 4 4 3 3 3 3 2 3 3 3 3 3 4 4 3 2 2 1 1 1 2 2 2 3 4 4 4 4 3 3 2 2 1 1 1 1 1 1 1 1 1 1 2 2 2 3 2 2 1 2 1 2 2 2 2 3 3 3 4 4 4 4 4
2 2 2 3 3 4 3 2 6 8 9 8 8 7 6 6 5 5 5 5 4 4 3 3 3 2 3 2 2 2 2 3 3 3 3 3 3 3 2 2 1 1 1 1 1 2 4 4 5 4 4 3 2 2 1 1 1 1 1 1 1 2 2 2 2 2 2 3 3 2 2 2 2 2 2 2 3 3 3 4 4 4 4 4 4
2 2 2 3 4 4 2 4 7 9 9 9 8 7 6 6 6 5 5 5 4 4 3 3 2 2 2 2 1 1 1 2 3 3 3 3 3 3 3 2 1 1 1 1 1 1 2 4 5 5 4 4 3 2 1 1 1 1 2 2 2 2 2 2 2 2 2 3 3 3 3 3 3 3 3 3 3 3 4 4 4 4 4 4 4
2 2 2 3 4 3 3 6 8 9 9 8 7 6 6 6 6 6 5 5 4 4 3 3 2 2 2 2 2 2 1 1 2 3 3 3 3 2 3 3 2 1 1 1 1 1 1 2 4 4 4 4 3 2 2 2 2 2 2 3 3 2 2 2 3 3 3 3 3 4 4 4 4 4 4 4 4 4 4 4 4 4 4 4 4
2 1 2 3 4 3 4 7 8 9 9 8 7 6 6 6 6 6 5 5 4 3 3 2 2 2 2 2 2 2 2 1 1 2 3 3 2 2 2 3 3 2 2 1 1 1 1 1 3 4 4 4 4 3 2 2 2 2 3 3 3 2 2 2 3 3 3 3 4 4 4 4 4 5 5 5 5 5 4 4 4 4 4 4 4
1 0 1 2 3 3 5 7 9 9 9 8 7 6 6 6 6 6 5 5 4 3 2 2 1 2 2 2 2 2 2 1 1 1 2 2 2 2 2 3 3 3 3 3 2 2 1 2 2 3 4 4 4 4 3 3 3 3 3 3 3 2 2 3 3 3 4 4 4 4 5 5 5 5 5 5 6 5 5 5 5 5 5 5 5
1 1 2 2 2 4 7 8 9 9 8 7 6 6 6 6 6 5 5 4 4 3 2 2 1 1 2 2 2 2 3 2 2 2 2 2 2 2 3 3 3 3 3 3 3 3 2 2 2 3 4 4 4 4 4 3 4 4 3 3 3 3 3 3 3 4 4 5 5 5 5 5 6 6 6 6 6 6 6 5 5 5 6 6 5
2 3 4 3 4 6 9 10 9 8 7 7 7 6 6 5 5 5 4 4 3 3 2 2 2 2 2 2 2 3 3 4 4 3 3 3 3 3 3 4 4 4 4 4 4 4 4 3 3 3 4 4 5 4 4 4 4 4 4 4 4 3 3 4 4 4 5 5 5 6 6 6 6 6 6 6 6 6 6 6 6 6 6 6 6
4 5 5 6 7 9 9 9 8 8 7 7 6 6 5 5 5 4 4 4 3 3 3 2 2 2 2 2 3 3 4 4 5 4 4 4 4 4 5 5 5 5 5 5 5 5 5 5 4 4 4 5 5 5 5 5 5 5 5 5 5 4 4 4 5 5 5 6 6 6 6 6 6 6 6 6 6 7 6 6 6 6 6 6 6
4 6 7 8 8 8 7 7 7 7 6 6 5 5 5 4 4 4 4 3 3 3 3 2 2 2 2 3 3 3 4 4 5 5 5 5 5 6 6 6 6 6 6 6 6 6 6 6 6 6 6 6 6 6 6 6 6 6 6 6 6 5 5 5 6 6 6 6 6 7 7 7 6 6 6 6 7 7 7 7 7 7 7 7 7
5 7 8 7 7 7 7 6 6 6 5 5 4 4 4 4 4 3 3 3 3 2 2 2 2 3 3 3 3 4 4 4 5 5 6 6 6 7 7 7 7 7 7 7 7 7 7 7 7 7 7 7 7 7 7 7 7 7 7 7 7 7 7 6 7 7 7 7 7 7 7 7 7 7 6 7 7 7 7 8 8 8 8 7 8
7 7 7 6 6 6 6 6 5 4 4 4 4 4 4 4 3 3 3 3 3 3 3 3 3 3 4 4 4 4 4 4 5 5 6 6 7 7 8 8 8 8 8 8 8 8 8 8 8 8 9 9 9 9 9 8 8 8 8 8 9 8 8 8 8 8 8 8 8 8 8 8 8 7 7 7 7 8 8 8 8 8 8 8 8
7 6 6 6 5 5 6 5 4 4 4 4 4 4 4 4 4 3 3 4 4 4 4 4 4 4 4 5 5 5 5 5 5 6 6 7 7 7 8 8 8 9 9 9 9 9 9 9 9 9 10 10 10 10 10 10 10 10 10 10 10 10 10 10 9 9 9 9 9 9 9 8 8 8 8 8 8 8 8 9 9 8 8 9 9
6 6 5 4 4 4 4 4 4 4 4 4 4 4 4 4 4 4 4 4 4 4 4 4 4 5 5 5 6 6 6 6 6 7 7 7 8 8 8 9 9 9 10 10 10 10 10 10 10 10 11 11 11 12 12 11 11 11 11 11 11 11 11 11 10 10 10 10 10 10 10 9 9 9 9 9 9 9 9 9 9 9 9 9 9
6 5 4 4 3 3 3 3 3 3 3 4 4 4 4 4 4 5 5 5 5 5 5 5 5 6 6 6 7 7 7 7 7 8 8 8 8 9 9 10 10 10 10 10 10 11 11 11 11 11 11 12 12 12 13 13 13 12 12 12 12 12 12 12 11 11 11 11 11 11 11 10 10 10 9 10 10 10 10 9 9 9 10 10 10
5 5 4 4 3 3 3 3 2 2 3 3 3 4 5 5 5 5 6 6 6 6 7 7 7 7 8 8 8 8 8 8 8 9 9 9 9 10 10 10 11 11 11 11 11 12 12 12 12 12 12 12 12 13 13 13 13 13 13 13 13 13 13 13 12 12 12 12 12 12 12 12 11 11 11 11 11 11 11 10 10 10 10 10 11
5 4 4 4 3 3 3 2 2 2 2 2 3 4 4 5 5 5 5 6 6 7 7 8 8 8 9 9 9 9 9 9 10 10 10 10 11 11 11 11 12 12 12 12 13 13 13 13 13 13 13 13 13 14 14 14 14 14 14 14 14 14 14 14 14 13 13 13 13 13 13 13 13 12 12 12 12 12 12 11 11 11 11 11 11
5 5 4 4 3 3 3 3 3 2 3 3 4 4 5 5 5 5 5 6 6 7 8 8 8 9 10 10 10 10 10 11 11 11 11 11 11 12 12 12 13 13 13 14 14 14 14 14 14 14 15 14 14 14 14 14 14 14 14 15 15 15 15 15 15 15 15 14 14 14 14 14 14 14 13 13 13 13 12 13 13 13 12 12 12
5 5 4 4 4 4 4 4 4 4 4 5 5 6 6 6 6 7 7 7 8 9 9 9 10 10 10 11 11 11 12 12 12 12 12 12 12 13 13 13 13 14 14 15 15 15 15 15 15 15 16 16 16 15 15 15 15 15 15 15 15 15 16 16 16 16 16 16 16 15 15 15 15 15 15 14 14 14 14 14 14 14 13 13 13
5 4 4 4 4 4 5 5 5 5 6 6 7 7 8 8 8 9 9 10 10 11 11 12 12 12 12 12 12 13 13 13 14 14 14 14 14 14 14 14 14 15 15 16 16 16 16 17 17 17 17 17 17 17 17 17 16 16 16 16 16 16 16 16 16 17 17 17 17 17 17 16 16 16 16 16 16 16 15 15 15 15 14 14 14
5 5 5 5 5 5 5 6 6 6 7 7 8 8 9 9 10 10 11 11 12 12 13 14 14 14 15 15 15 15 15 15 15 15 15 15 15 15 15 15 15 15 16 16 17 17 17 18 18 18 19 19 18 18 18 18 18 18 18 17 17 17 17 17 17 17 17 17 18 18 18 18 18 18 18 17 17 17 17 17 16 16 15 15 15
6 5 5 5 5 6 6 6 7 7 7 8 8 9 10 10 11 11 12 12 13 13 14 15 15 16 16 16 16 16 16 16 17 17 17 17 16 16 17 17 17 17 17 17 17 17 18 18 19 19 20 20 20 20 20 20 20 20 19 19 19 19 19 19 19 18 18 18 18 18 19 19 19 19 19 19 18 18 18 18 17 17 16 16 16
6 6 6 6 6 6 7 7 8 8 8 9 9 10 11 11 12 12 13 13 14 14 15 15 16 16 17 17 17 17 17 18 18 18 18 18 18 18 18 18 18 18 18 18 17 17 18 18 19 19 20 21 21 22 22 22 21 21 21 21 21 21 20 20 20 20 20 19 19 19 19 20 20 20 20 20 19 19 19 18 18 18 17 17 17
6 6 6 6 6 7 7 8 8 9 9 10 10 11 12 12 13 14 14 15 15 16 16 16 17 17 17 18 18 18 18 18 19 19 19 20 20 19 19 19 19 19 18 18 18 18 18 18 19 19 20 21 22 22 23 23 23 23 23 23 23 23 22 22 22 21 21 21 21 20 20 20 20 20 20 20 20 20 20 19 19 18 18 18 18
7 6 6 7 7 8 9 9 10 10 11 11 12 13 13 14 15 16 16 16 17 17 17 18 18 18 18 18 18 19 19 19 20 20 20 20 20 20 20 20 20 20 19 19 19 19 19 19 19 20 20 20 21 22 23 23 24 24 24 24 24 24 24 24 23 23 23 22 22 22 22 21 21 20 21 21 21 21 21 21 20 19 19 19 19
7 7 7 8 8 9 10 10 11 12 12 13 13 14 15 16 17 17 18 18 18 18 18 18 19 19 19 19 19 19 20 20 20 21 21 21 21 21 21 21 21 20 20 20 20 20 20 20 20 20 21 21 21 21 22 23 23 24 24 24 25 25 25 25 25 25 24 24 24 23 23 23 22 22 22 22 22 22 22 22 21 21 20 20 21
8 8 8 9 10 10 11 12 12 13 13 14 15 16 16 17 18 18 18 19 19 19 19 19 19 19 20 20 20 20 20 21 21 21 21 21 21 21 21 21 21 21 21 21 21 21 21 21 21 21 21 21 22 22 22 22 23 23 24 24 25 25 25 25 25 25 25 25 25 25 24 24 24 24 23 23 23 23 23 23 23 22 22 21 21
8 8 9 10 10 11 12 13 14 14 15 16 16 17 17 18 18 18 19 19 19 19 20 20 20 20 20 20 20 21 21 21 21 21 21 21 21 21 21 21 21 22 22 22 23 23 22 22 22 22 22 22 22 22 22 22 23 23 23 23 23 23 23 24 24 24 25 25 25 25 25 25 25 25 25 24 24 24 24 24 23 23 22 22 22
9 9 10 11 12 13 13 14 15 15 16 16 17 17 18 18 18 18 19 19 19 20 20 20 20 20 20 20 20 21 21 21 21 21 21 21 21 21 21 21 21 22 23 23 23 23 23 23 23 23 23 22 22 22 23 22 23 23 22 22 22 22 22 22 23 24 24 24 24 24 25 25 25 25 25 25 25 24 24 24 24 23 23 23 22
10 11 11 12 13 14 15 15 15 16 16 17 18 18 18 18 18 18 19 19 19 19 19 19 20 20 20 20 21 21 21 21 21 21 22 21 21 21 21 22 22 23 23 23 24 24 24 24 24 24 23 23 23 23 24 24 23 24 23 23 23 23 22 22 23 23 23 23 24 24 24 24 24 24 24 24 24 24 24 24 24 24 23 23 22
11 12 12 13 14 14 15 15 16 16 17 18 18 18 18 18 19 19 19 19 19 19 19 19 19 19 20 20 20 21 21 21 21 21 22 22 22 22 23 23 24 24 24 24 24 24 24 24 24 24 24 24 24 24 25 25 25 24 25 25 24 24 24 24 24 24 24 24 24 24 24 24 24 24 24 24 24 24 23 23 24 24 23 23 23
12 12 13 13 14 14 15 15 16 17 17 18 18 18 18 18 18 18 18 18 18 18 18 19 19 19 19 19 20 20 20 20 21 21 21 22 22 23 23 23 24 24 24 24 24 24 24 24 24 24 24 24 24 24 25 25 25 25 25 25 25 25 25 25 25 25 25 25 25 24 24 24 24 24 24 24 23 23 23 23 23 23 23 23 23
12 12 12 12 13 13 14 15 17 17 18 18 18 18 18 18 18 18 17 17 17 18 18 18 18 18 19 19 19 19 19 19 20 20 20 21 21 21 22 22 22 23 23 23 23 23 23 23 23 24 24 24 24 24 24 25 25 26 25 25 25 25 25 25 25 25 25 25 25 25 25 25 25 25 25 25 24 24 24 24 24 24 24 24 24
11 11 12 12 12 13 14 15 17 17 18 17 17 17 18 18 17 17 16 16 17 17 17 17 17 17 18 18 18 18 18 18 18 18 19 19 19 20 20 20 20 21 21 21 21 22 22 22 22 23 23 24 24 24 24 25 25 25 25 25 25 25 25 25 26 26 26 26 26 25 26 26 25 25 25 25 25 25 25 25 25 25 25 25 25
11 11 12 12 12 13 14 15 16 17 17 16 16 17 17 17 16 16 16 16 16 16 16 16 16 17 17 17 17 17 17 17 17 16 17 17 17 18 18 19 19 19 19 19 19 20 20 20 21 21 22 22 23 23 24 24 24 25 25 25 25 25 25 24 25 25 26 26 26 26 26 26 25 25 25 24 25 25 25 25 25 26 26 26 26
10 11 11 11 12 12 13 14 15 15 15 15 15 16 16 15 15 15 15 15 16 16 16 16 16 16 16 16 16 16 16 15 15 15 15 16 16 16 16 17 17 17 17 17 17 18 18 18 19 19 20 20 20 21 22 22 23 23 24 24 24 24 24 24 25 25 25 25 26 26 25 26 26 25 25 25 25 25 25 25 26 26 25 25 25
Wind_Direction
272 254 254 255 236 220 207 195 182 182 180 182 179 172 165 160 156 148 143 142 148 150 149 146 145 145 149 154 156 155 153 153 151 149 147 142 135 132 128 124 118 115 117 121 127 130 127 120 113 110 104 102 101 97 91 92 91 91 90 88 88 86 82 80 81 81 77 76 78 75 69 59 49 53 56 54 59 63 64 62 56 52 49 46 45
275 261 253 253 234 219 213 190 174 178 176 175 172 167 163 162 159 156 151 148 152 153 152 150 148 147 149 153 156 157 157 155 152 149 141 136 132 127 123 120 118 118 122 126 133 135 132 126 122 116 108 106 106 102 96 95 93 90 90 91 93 90 85 83 86 85 77 75 78 73 66 57 51 54 57 58 60 62 64 60 52 46 42 41 39
273 266 246 229 216 203 200 188 176 178 173 169 169 165 161 162 161 161 159 157 159 158 159 158 158 157 156 154 155 156 157 156 153 149 142 137 132 126 119 116 117 119 122 129 134 135 139 140 138 127 123 122 115 109 100 95 93 93 92 92 90 82 78 83 87 87 78 72 75 74 67 60 54 54 57 59 58 58 59 57 50 43 40 39 35
286 273 240 214 204 188 183 181 176 177 175 171 168 166 163 165 167 166 164 162 163 162 163 161 160 158 156 155 153 155 155 154 151 148 142 135 129 122 114 108 109 112 120 129 134 139 150 155 149 141 135 127 120 111 101 97 94 95 93 89 86 73 65 73 80 86 85 76 75 76 70 62 56 56 59 58 55 54 55 53 48 44 41 39 34
330 4 240 202 193 181 173 172 174 177 178 176 172 170 168 169 170 169 166 165 165 163 162 160 159 157 157 156 156 156 154 152 150 148 145 138 129 118 106 98 97 100 109 117 125 141 158 160 154 149 142 128 120 111 105 104 97 92 85 82 84 71 61 68 75 79 84 79 75 73 68 62 57 57 59 58 56 53 52 51 46 43 40 37 33
125 53 83 177 177 172 169 175 186 185 180 178 174 172 170 170 171 170 167 167 166 163 160 161 162 161 161 161 160 158 157 155 150 148 149 147 139 124 106 94 91 95 103 107 111 124 139 151 156 153 145 133 127 123 121 118 110 96 79 81 85 74 64 66 70 69 67 67 71 70 66 61 58 58 58 59 58 54 51 49 45 43 40 35 32
113 80 91 145 165 170 175 190 194 187 184 179 175 173 172 172 171 168 165 165 165 164 161 160 163 164 164 165 164 162 161 158 154 151 153 154 151 139 117 97 90 93 100 110 111 117 129 145 157 153 147 144 149 152 149 140 140 115 76 94 93 77 66 62 62 60 55 54 58 65 65 59 58 59 58 57 53 50 47 45 42 39 35 31 29
113 111 109 130 157 172 183 193 187 181 180 178 177 174 172 172 169 164 160 161 163 163 163 161 164 166 165 166 168 167 163 160 160 161 163 167 163 149 130 115 107 107 111 123 124 124 130 142 152 151 152 156 168 177 189 204 202 214 106 125 112 80 65 62 58 52 49 49 50 59 62 58 58 57 55 52 47 43 39 34 31 27 25 26 26
186 188 162 148 158 168 176 183 180 175 173 178 178 172 169 169 168 163 162 162 163 164 163 162 163 167 164 164 168 168 164 161 163 166 172 179 175 158 143 138 132 132 131 137 142 139 136 141 148 152 159 166 182 206 241 251 235 226 189 158 149 105 73 64 54 42 40 42 43 49 52 59 60 52 49 47 40 32 24 17 17 21 25 27 25
222 221 197 178 168 165 171 180 184 180 176 178 176 171 167 166 166 164 165 164 162 161 159 159 158 160 161 162 164 164 162 161 164 168 174 179 176 168 157 152 150 148 144 147 155 153 149 148 153 160 173 185 205 250 272 264 240 224 209 185 173 144 94 60 40 32 31 32 34 38 42 61 66 52 42 34 22 11 8 11 21 29 29 27 24
239 219 198 190 177 173 181 189 193 192 183 178 176 174 169 164 163 160 160 160 157 154 152 154 152 153 156 159 161 160 161 162 166 170 173 173 172 171 161 157 159 157 153 156 165 170 166 161 166 176 190 207 235 271 280 273 249 230 225 204 187 168 119 50 31 23 18 14 19 25 24 26 53 43 22 10 10 11 17 23 32 35 32 27 23
268 223 198 192 183 185 196 197 198 196 187 180 176 174 172 166 162 158 156 153 148 147 147 148 150 152 153 155 157 157 158 159 161 167 172 170 171 176 177 185 167 161 162 164 175 183 180 175 178 188 203 224 256 274 277 271 248 231 218 203 196 192 180 26 22 14 4 360 8 16 11 357 1 25 18 14 14 16 21 24 26 29 30 26 22
284 246 212 201 191 190 195 200 205 201 190 179 173 170 171 166 161 160 156 153 149 149 149 148 149 151 154 156 160 160 159 159 161 169 174 171 175 189 211 224 204 176 172 176 186 189 189 187 187 195 210 241 270 277 272 254 226 216 199 193 198 206 243 342 5 4 354 353 1 5 4 358 359 25 28 20 15 11 14 16 15 17 21 18 16
282 270 223 202 198 198 201 210 213 198 185 175 169 168 169 165 161 160 158 156 154 156 154 150 147 148 153 158 167 171 172 172 174 182 188 189 194 213 242 246 222 199 185 187 198 199 198 198 197 199 211 253 274 271 257 227 205 201 191 192 200 214 267 328 344 350 348 347 350 353 354 352 347 9 13 4 3 4 6 7 8 8 9 9 10
277 262 215 206 206 207 208 212 202 184 176 169 166 168 170 165 159 159 157 154 151 152 150 148 148 149 152 156 169 179 183 186 187 195 200 201 203 212 232 248 220 203 192 190 208 213 212 210 207 206 215 248 260 246 229 210 206 204 204 210 215 236 276 320 329 333 335 336 340 343 340 338 330 323 325 341 346 348 355 358 359 359 360 3 6
258 235 214 218 209 202 208 199 177 170 165 163 165 169 171 167 161 156 153 150 147 147 146 145 144 145 149 151 160 174 182 186 190 198 201 202 205 212 222 219 206 202 201 201 216 218 215 215 214 216 222 231 237 227 208 202 220 220 229 248 252 263 277 303 318 322 327 330 335 332 316 314 305 300 300 319 332 333 344 347 348 352 356 359 1
245 232 230 228 207 203 217 180 164 163 160 161 162 165 169 167 164 158 153 152 151 150 147 145 144 143 148 148 149 160 173 184 192 198 200 202 205 208 208 207 209 208 210 213 223 221 218 220 220 221 218 212 213 209 203 219 250 252 246 261 264 264 272 288 305 315 322 325 326 318 304 297 287 290 291 303 319 320 328 334 340 347 349 350 352
255 257 247 234 214 212 207 163 160 160 158 158 156 160 167 167 164 159 155 155 157 157 152 147 148 150 154 156 157 152 156 189 208 212 211 214 216 213 209 214 221 203 193 201 220 234 225 222 220 216 209 200 200 208 218 241 267 275 266 264 265 266 269 277 289 298 311 318 319 313 303 290 279 284 287 294 305 308 317 324 331 338 339 340 344
263 261 242 231 214 203 172 158 159 159 157 155 154 160 165 163 162 160 158 158 159 160 157 149 148 155 163 166 165 156 131 148 210 219 223 225 229 225 221 221 219 208 192 191 210 237 227 217 214 211 208 204 208 221 234 248 264 275 274 266 261 263 268 274 279 286 299 307 313 311 302 291 281 280 284 290 294 296 308 315 320 327 330 332 336
255 249 235 232 213 187 155 154 156 158 158 156 156 160 161 161 161 162 163 162 164 164 162 156 158 167 174 175 169 162 146 117 169 208 218 221 227 226 221 213 210 213 215 221 227 244 249 232 220 217 216 213 217 230 243 255 265 273 278 274 264 266 272 274 275 282 291 298 305 305 301 295 287 283 284 287 288 290 298 306 313 317 320 323 327
230 203 195 207 206 181 159 154 153 156 159 157 155 156 159 162 164 166 168 168 168 168 168 169 177 187 194 200 190 183 177 165 159 187 209 216 228 230 228 224 223 228 235 241 240 246 254 250 240 226 220 217 222 232 243 255 266 274 281 281 273 277 280 274 273 281 288 293 297 298 300 297 291 287 283 283 285 286 291 299 305 308 313 316 318
158 121 119 134 160 161 154 149 149 154 155 155 156 158 160 162 165 168 169 169 166 166 171 179 190 209 220 228 222 212 209 214 215 212 222 229 235 238 238 239 239 240 247 253 251 253 257 254 249 237 227 224 227 233 242 253 264 274 281 281 276 278 277 271 271 279 285 290 294 294 297 298 293 287 282 281 282 283 286 292 299 302 306 309 312
122 114 108 110 128 141 143 143 147 151 152 156 158 159 161 162 165 170 170 167 167 170 181 193 207 226 237 248 246 239 233 235 239 240 241 243 245 246 247 248 247 249 254 259 259 258 260 262 255 246 239 235 235 238 244 250 259 269 276 279 276 272 269 266 268 275 282 287 291 292 295 297 293 289 286 284 282 283 286 288 293 296 300 304 307
110 109 112 117 126 133 140 145 147 148 152 156 155 156 159 162 165 169 172 173 175 180 191 204 221 237 251 261 257 253 250 248 250 253 252 253 254 252 253 255 255 256 258 260 260 258 257 260 258 252 248 245 244 244 248 252 258 265 271 275 275 271 265 263 267 273 278 284 288 290 294 295 293 290 290 288 284 287 288 289 292 293 297 300 302
121 116 120 122 125 131 141 147 144 144 150 154 155 158 158 159 163 166 170 176 182 191 202 217 235 250 263 270 264 261 261 258 257 257 256 257 258 256 255 257 260 261 261 261 261 260 257 257 257 254 253 251 250 249 249 252 258 265 270 273 273 271 268 267 270 274 276 280 283 286 290 292 292 291 290 288 286 289 291 293 296 295 295 296 298
131 122 121 124 131 139 141 142 145 147 151 158 167 170 168 168 172 175 177 185 196 208 223 242 260 268 273 275 273 269 267 266 263 260 257 257 259 260 258 257 260 261 262 263 263 262 260 259 257 256 255 253 252 253 253 253 257 264 271 272 272 272 272 272 273 275 277 279 280 282 285 287 289 290 289 289 287 289 293 295 297 298 296 294 295
131 125 126 127 132 141 141 141 150 160 166 173 177 179 184 188 193 198 207 219 230 243 251 261 269 273 275 276 278 276 274 270 268 265 258 256 260 263 263 261 260 261 263 264 264 263 261 261 260 258 257 256 255 257 258 258 259 263 269 271 271 272 273 274 274 275 276 277 278 279 281 282 284 287 288 290 289 289 293 295 296 299 299 297 295
136 132 133 129 127 132 139 144 154 172 184 189 193 200 207 211 217 223 233 239 244 251 255 261 267 272 273 274 276 275 274 272 271 269 264 261 262 263 264 263 262 262 265 265 265 263 262 261 261 260 259 258 258 260 262 263 264 265 267 270 271 272 273 273 274 274 274 274 275 275 277 279 280 284 287 290 290 289 291 292 292 295 298 298 298
141 139 140 138 137 139 145 153 168 184 198 210 215 220 221 226 235 241 246 247 246 248 254 262 268 275 276 274 275 274 273 272 270 268 266 265 264 264 264 264 263 263 265 266 265 264 263 261 261 262 261 260 260 261 264 265 266 266 267 268 269 270 271 272 272 273 273 273 273 273 275 277 278 281 285 288 290 290 290 290 290 291 293 295 296
148 149 151 153 156 162 164 167 173 185 202 216 223 226 228 235 243 246 249 248 247 251 259 267 273 277 279 278 275 275 274 272 271 269 267 266 266 266 265 265 264 264 264 264 264 264 263 262 262 262 262 262 261 262 264 265 266 266 266 266 267 268 269 269 270 271 272 273 273 273 274 276 277 279 281 285 287 289 290 290 290 290 291 292 293
160 164 170 174 173 176 178 178 179 187 200 214 229 235 239 243 247 250 251 252 253 258 262 267 270 275 278 279 277 274 272 270 270 269 268 268 268 268 267 267 266 265 265 265 265 264 263 263 262 263 263 263 262 262 263 264 265 265 265 265 266 268 268 268 269 270 271 272 272 271 272 274 275 277 279 282 284 286 288 289 290 290 291 291 290
175 180 188 192 194 196 193 199 211 221 222 234 245 247 250 250 253 255 256 259 262 264 266 268 270 274 277 278 278 276 272 270 268 267 267 268 269 270 270 269 268 267 267 267 267 267 265 264 263 263 264 264 264 263 263 263 264 264 264 265 266 267 268 268 268 269 270 270 270 269 270 271 273 274 276 278 281 283 285 287 288 290 292 291 289
188 193 197 204 214 218 221 232 240 242 246 257 261 261 261 260 262 262 264 267 268 269 270 272 274 279 281 280 280 278 275 272 270 268 267 267 268 270 271 271 270 269 269 269 269 268 267 266 265 265 265 265 265 264 264 264 264 264 265 265 266 267 268 268 268 268 268 268 268 268 268 269 271 272 273 275 277 279 282 284 287 288 290 291 290
200 205 211 220 229 235 242 248 252 255 261 266 268 268 267 267 268 268 269 270 271 271 271 274 277 279 280 280 280 279 278 276 273 271 269 268 268 269 270 271 272 271 270 270 270 269 268 267 266 266 266 266 266 266 266 266 266 265 266 266 267 267 267 267 267 267 267 267 267 267 267 267 268 271 272 273 274 276 279 281 284 286 287 288 288
209 216 225 232 239 247 251 254 260 266 266 267 267 268 269 269 270 271 272 272 273 273 273 275 277 279 279 279 279 279 279 278 276 274 272 270 269 269 270 270 271 271 271 270 269 269 269 268 266 266 265 265 266 266 266 266 267 267 267 267 267 267 267 267 267 267 266 267 267 267 267 267 268 269 271 272 273 275 277 279 281 283 284 285 286
215 221 230 237 247 254 257 261 266 269 267 266 267 268 270 271 272 273 273 274 274 275 276 277 277 279 279 279 279 279 278 278 277 274 273 272 271 270 269 270 271 271 271 271 270 270 269 269 268 266 266 265 265 265 265 265 266 266 267 267 267 267 267 267 268 267 266 266 268 268 267 267 268 269 270 271 273 275 276 278 279 280 281 283 285
220 227 235 242 249 254 259 263 266 268 268 269 269 271 272 274 275 276 276 276 276 277 278 279 279 279 279 279 279 278 277 277 276 273 272 272 272 271 270 270 270 270 270 270 271 271 270 270 269 267 267 266 266 265 265 265 265 265 266 266 267 267 267 267 268 267 266 267 268 269 268 267 268 268 269 270 272 274 275 276 277 278 279 281 283
225 232 238 243 249 254 259 264 268 271 272 272 273 274 275 277 278 278 278 278 279 280 280 280 279 279 279 279 279 278 277 277 276 274 271 271 271 271 271 271 270 269 269 269 270 271 271 271 270 269 267 266 266 266 266 265 265 265 265 265 265 266 267 268 267 267 267 268 268 269 268 268 267 268 268 269 270 272 274 276 276 277 278 279 281
227 234 239 246 253 259 264 268 272 274 275 276 277 277 278 279 280 280 280 280 280 281 281 281 280 280 280 279 279 278 277 277 276 275 272 271 270 270 270 270 269 270 270 270 270 270 271 271 271 270 269 267 267 266 266 266 265 265 265 265 265 266 267 267 267 267 267 267 267 268 268 268 268 267 267 268 268 270 273 275 276 276 276 277 279
229 237 244 254 260 264 268 272 275 277 278 279 279 280 281 281 283 284 283 282 282 282 282 282 282 281 280 279 278 277 277 276 276 276 273 271 270 269 269 269 269 269 270 270 270 270 270 271 271 271 270 270 268 267 266 265 265 265 265 265 265 265 266 266 266 266 267 267 266 266 267 267 268 267 267 267 268 269 271 273 274 275 276 277 278
237 245 252 260 264 267 271 274 277 279 280 281 281 283 285 286 286 287 286 285 283 283 282 282 282 281 280 279 277 276 276 276 276 276 274 271 269 268 269 269 269 269 270 270 270 270 270 271 271 272 272 272 271 269 268 266 266 265 265 265 265 265 265 265 265 265 265 266 266 266 266 266 266 267 267 267 268 269 269 270 271 273 275 276 276
243 252 259 264 269 272 275 277 279 281 283 284 284 286 287 288 288 287 287 286 284 283 282 281 281 281 280 279 278 277 277 275 275 274 273 271 269 268 268 268 269 270 270 271 271 271 271 270 271 272 272 272 272 272 270 268 266 265 265 266 266 266 265 264 264 264 263 264 264 265 265 265 265 266 266 267 268 269 269 270 271 272 273 274 275
249 258 264 269 274 277 279 281 282 284 285 285 286 287 288 289 288 288 288 287 285 284 283 282 282 282 281 281 280 279 278 277 275 273 272 271 269 267 267 268 268 269 271 271 271 271 271 271 271 271 272 272 272 272 270 269 267 266 266 265 266 266 266 265 265 264 263 263 263 264 264 264 264 265 265 267 268 268 269 269 270 272 272 272 274
259 265 269 273 276 279 280 281 283 284 285 286 287 287 288 289 289 288 288 286 284 284 283 282 282 281 280 280 280 279 278 277 276 273 271 271 269 268 267 267 268 269 270 270 270 271 271 271 271 271 272 272 272 271 270 268 267 267 266 265 265 265 265 266 266 265 264 264 264 263 264 264 264 264 265 266 267 267 267 268 269 270 271 272 273
264 268 271 274 276 279 280 282 283 285 286 286 286 287 287 288 288 288 287 286 285 285 284 283 283 281 280 279 279 279 278 277 276 273 270 269 269 268 268 268 269 269 269 269 270 270 271 271 272 272 272 272 271 270 269 268 267 266 266 265 265 265 264 266 268 266 265 264 264 264 264 264 264 265 265 266 266 266 266 266 267 268 270 271 273
268 272 274 276 278 281 282 284 285 285 286 286 286 286 286 286 287 287 287 286 285 285 285 284 283 282 281 280 279 279 278 277 276 274 271 270 269 269 268 268 269 269 268 268 269 269 270 271 271 272 272 271 270 270 269 268 267 267 266 265 265 265 265 267 267 266 266 266 265 264 264 264 264 265 265 265 265 265 266 266 267 267 268 269 272
271 275 278 280 282 284 285 285 285 286 286 286 287 286 286 287 288 287 286 285 284 284 283 282 282 281 281 280 279 280 279 278 276 275 274 272 271 271 270 269 268 268 267 268 268 269 269 270 270 271 271 271 270 270 269 269 269 267 266 266 265 265 265 265 266 266 267 267 266 265 264 263 264 264 265 265 265 265 265 266 267 267 268 270 272
272 277 282 285 287 288 290 289 288 287 286 286 287 286 286 287 288 287 285 284 284 284 283 282 281 281 281 280 280 279 279 279 277 276 275 273 273 272 272 271 270 269 269 268 269 269 269 270 271 271 271 271 270 270 270 269 269 268 267 267 267 266 265 264 265 266 266 267 267 266 264 264 264 264 265 265 265 265 266 266 267 267 269 270 271
275 281 285 286 289 292 293 292 291 290 289 288 287 287 287 287 287 285 285 285 284 284 284 283 282 282 281 281 281 280 280 280 280 279 277 276 275 275 274 274 273 271 270 270 270 270 271 271 272 272 272 272 272 271 271 270 269 269 269 268 268 267 267 266 265 265 265 265 266 266 265 266 266 265 265 265 264 265 266 267 267 268 268 269 270
280 286 287 286 289 293 295 296 295 293 292 291 290 288 287 286 285 285 286 287 286 286 285 284 283 283 282 282 283 282 282 283 283 283 281 281 280 278 277 276 275 273 272 271 271 272 273 274 274 275 276 276 275 274 273 272 271 270 270 269 269 268 268 268 266 265 264 264 263 264 265 266 266 266 265 265 265 265 266 267 267 268 268 269 270
284 288 288 288 291 295 299 302 302 298 296 294 292 291 289 287 286 286 288 289 289 289 289 287 286 285 285 284 284 284 284 285 285 284 285 286 285 284 282 280 278 276 275 274 274 275 277 278 280 282 282 281 280 279 277 275 273 272 271 270 269 269 269 269 268 266 266 265 264 263 263 264 264 265 265 265 266 266 266 267 267 268 268 268 270